| time (UTC) | temp C | wind direction | speed KPH | gust KPH | rain 1hr cm | rain 24hr cm | rain mn cm | humidity % | barometer mb |
| 20260506044515 | 7 | 69 | 1.6 | 11.3 | 0.00 | 0.00 | 0.00 | 78 | 1013.5 |
| 20260506043021 | 7 | 77 | 1.6 | 11.3 | 0.00 | 0.00 | 0.00 | 78 | 1013.4 |
| 20260506041524 | 8 | 77 | 3.2 | 8.0 | 0.00 | 0.00 | 0.00 | 78 | 1013.5 |
| 20260506040005 | 8 | 155 | 3.2 | 9.7 | 0.00 | 0.00 | 0.00 | 78 | 1013.5 |
| 20260506034513 | 8 | 50 | 3.2 | 12.9 | 0.00 | 0.00 | 0.00 | 77 | 1013.4 |
| 20260506033026 | 8 | 24 | 3.2 | 12.9 | 0.00 | 0.00 | 0.00 | 77 | 1013.3 |
| 20260506031538 | 8 | 84 | 3.2 | 9.7 | 0.00 | 0.00 | 0.00 | 78 | 1013.3 |
| 20260506030030 | 8 | 79 | 1.6 | 8.0 | 0.00 | 0.00 | 0.00 | 79 | 1013.5 |
| 20260506024510 | 8 | 69 | 3.2 | 11.3 | 0.00 | 0.00 | 0.00 | 78 | 1013.4 |
| 20260506023014 | 9 | 86 | 3.2 | 6.4 | 0.00 | 0.00 | 0.00 | 78 | 1013.5 |
| 20260506021516 | 9 | 321 | 0.0 | 6.4 | 0.00 | 0.00 | 0.00 | 77 | 1013.4 |
| 20260506020025 | 9 | 79 | 1.6 | 8.0 | 0.00 | 0.00 | 0.00 | 76 | 1013.5 |
| 20260506014527 | 9 | 56 | 1.6 | 11.3 | 0.00 | 0.00 | 0.00 | 78 | 1013.5 |
| 20260506013008 | 9 | 45 | 1.6 | 9.7 | 0.00 | 0.00 | 0.00 | 78 | 1013.5 |
| 20260506011519 | 10 | 85 | 3.2 | 8.0 | 0.00 | 0.00 | 0.00 | 78 | 1013.6 |
| 20260506010044 | 10 | 24 | 1.6 | 9.7 | 0.00 | 0.00 | 0.00 | 78 | 1013.5 |
| 20260506004524 | 10 | 21 | 1.6 | 4.8 | 0.00 | 0.00 | 0.00 | 77 | 1013.6 |
| 20260506003027 | 10 | 72 | 3.2 | 11.3 | 0.00 | 0.00 | 0.00 | 77 | 1013.6 |
| 20260506001510 | 10 | 74 | 3.2 | 6.4 | 0.00 | 0.00 | 0.00 | 76 | 1013.6 |
| 20260506000018 | 10 | 95 | 3.2 | 12.9 | 0.00 | 0.00 | 0.00 | 76 | 1013.7 |
| 20260505234522 | 10 | 38 | 3.2 | 9.7 | 0.00 | 0.00 | 0.00 | 74 | 1013.7 |
| 20260505233025 | 10 | 61 | 1.6 | 12.9 | 0.00 | 0.00 | 0.00 | 73 | 1013.7 |
| 20260505231530 | 11 | 75 | 4.8 | 16.1 | 0.00 | 0.00 | 0.00 | 72 | 1013.6 |
| 20260505230010 | 11 | 78 | 4.8 | 11.3 | 0.00 | 0.00 | 0.00 | 71 | 1013.7 |
| 20260505224518 | 11 | 73 | 3.2 | 14.5 | 0.00 | 0.00 | 0.00 | 72 | 1013.7 |
| 20260505223021 | 11 | 83 | 1.6 | 11.3 | 0.00 | 0.00 | 0.00 | 71 | 1013.7 |
| 20260505221528 | 11 | 69 | 3.2 | 14.5 | 0.00 | 0.00 | 0.00 | 70 | 1013.6 |
| 20260505220030 | 12 | 51 | 4.8 | 14.5 | 0.00 | 0.00 | 0.00 | 69 | 1013.5 |
| 20260505214516 | 12 | 87 | 1.6 | 6.4 | 0.00 | 0.00 | 0.00 | 68 | 1013.5 |
| 20260505213026 | 12 | 88 | 1.6 | 9.7 | 0.00 | 0.00 | 0.00 | 67 | 1013.4 |
| 20260505211526 | 12 | 84 | 4.8 | 20.9 | 0.00 | 0.00 | 0.00 | 66 | 1013.2 |
| 20260505210026 | 12 | 4 | 1.6 | 11.3 | 0.00 | 0.00 | 0.00 | 67 | 1013.1 |
| 20260505204530 | 12 | 74 | 1.6 | 14.5 | 0.00 | 0.00 | 0.00 | 69 | 1013.0 |
| 20260505203029 | 13 | 39 | 3.2 | 12.9 | 0.00 | 0.00 | 0.00 | 68 | 1012.8 |
| 20260505201519 | 13 | 63 | 3.2 | 9.7 | 0.00 | 0.00 | 0.00 | 68 | 1012.8 |
| 20260505200026 | 13 | 56 | 1.6 | 9.7 | 0.00 | 0.00 | 0.00 | 68 | 1012.7 |
| 20260505194529 | 13 | 56 | 4.8 | 14.5 | 0.00 | 0.00 | 0.00 | 66 | 1012.5 |
| 20260505193030 | 13 | 25 | 3.2 | 6.4 | 0.00 | 0.00 | 0.00 | 65 | 1012.5 |
| 20260505191515 | 13 | 58 | 1.6 | 4.8 | 0.00 | 0.00 | 0.00 | 64 | 1012.3 |
| 20260505190032 | 14 | 39 | 1.6 | 6.4 | 0.00 | 0.00 | 0.00 | 64 | 1012.2 |
| 20260505184526 | 14 | 67 | 1.6 | 4.8 | 0.00 | 0.00 | 0.00 | 63 | 1012.2 |
| 20260505183031 | 14 | 53 | 3.2 | 6.4 | 0.00 | 0.00 | 0.00 | 63 | 1012.1 |
| 20260505181532 | 14 | 69 | 3.2 | 6.4 | 0.00 | 0.00 | 0.00 | 62 | 1012.1 |
| 20260505180017 | 15 | 44 | 1.6 | 8.0 | 0.00 | 0.00 | 0.00 | 62 | 1012.2 |
| 20260505174523 | 15 | 100 | 1.6 | 12.9 | 0.00 | 0.00 | 0.00 | 62 | 1012.1 |
| 20260505173036 | 15 | 84 | 4.8 | 11.3 | 0.00 | 0.00 | 0.00 | 60 | 1012.2 |
| 20260505171542 | 15 | 84 | 4.8 | 12.9 | 0.00 | 0.00 | 0.00 | 59 | 1012.2 |
| 20260505170030 | 15 | 56 | 4.8 | 12.9 | 0.00 | 0.00 | 0.00 | 59 | 1012.3 |
| 20260505164523 | 15 | 90 | 1.6 | 4.8 | 0.00 | 0.00 | 0.00 | 61 | 1012.3 |
| 20260505163024 | 15 | 68 | 3.2 | 6.4 | 0.00 | 0.00 | 0.00 | 60 | 1012.3 |
| 20260505161526 | 15 | 50 | 3.2 | 8.0 | 0.00 | 0.00 | 0.00 | 60 | 1012.3 |
| 20260505153021 | 15 | 106 | 1.6 | 11.3 | 0.00 | 0.00 | 0.00 | 63 | 1012.4 |
| 20260505151531 | 15 | 82 | 3.2 | 9.7 | 0.00 | 0.00 | 0.00 | 63 | 1012.5 |
| 20260505124526 | 15 | 347 | 1.6 | 11.3 | 0.00 | 0.00 | 0.00 | 57 | 1013.0 |
| 20260505123029 | 15 | 86 | 1.6 | 9.7 | 0.00 | 0.00 | 0.00 | 57 | 1013.0 |
| 20260505121532 | 16 | 59 | 1.6 | 8.0 | 0.00 | 0.00 | 0.00 | 57 | 1013.1 |
| 20260505120048 | 16 | 94 | 1.6 | 9.7 | 0.00 | 0.00 | 0.00 | 58 | 1013.1 |
| 20260505114523 | 15 | 23 | 3.2 | 8.0 | 0.00 | 0.00 | 0.00 | 62 | 1013.2 |
| 20260505113010 | 14 | 39 | 1.6 | 9.7 | 0.00 | 0.00 | 0.00 | 66 | 1013.2 |
| 20260505111517 | 14 | 82 | 1.6 | 8.0 | 0.00 | 0.00 | 0.00 | 68 | 1013.3 |
| 20260505101519 | 12 | 76 | 3.2 | 8.0 | 0.00 | 0.00 | 0.00 | 75 | 1013.6 |
| 20260505100022 | 12 | 60 | 3.2 | 11.3 | 0.00 | 0.00 | 0.00 | 75 | 1013.6 |
| 20260505094522 | 12 | 39 | 1.6 | 6.4 | 0.00 | 0.00 | 0.00 | 74 | 1013.7 |
| 20260505093025 | 12 | 115 | 1.6 | 9.7 | 0.00 | 0.00 | 0.00 | 76 | 1013.8 |
| 20260505091528 | 12 | 46 | 3.2 | 9.7 | 0.00 | 0.00 | 0.00 | 77 | 1013.8 |
| 20260505090026 | 12 | 72 | 1.6 | 6.4 | 0.00 | 0.00 | 0.00 | 77 | 1013.8 |
| 20260505084520 | 12 | 46 | 4.8 | 8.0 | 0.00 | 0.00 | 0.00 | 78 | 1013.9 |
| 20260505083021 | 12 | 94 | 1.6 | 8.0 | 0.00 | 0.00 | 0.00 | 81 | 1013.9 |
| 20260505081512 | 11 | 64 | 1.6 | 6.4 | 0.00 | 0.00 | 0.00 | 83 | 1014.0 |
| 20260505080011 | 11 | 283 | 3.2 | 6.4 | 0.00 | 0.00 | 0.00 | 83 | 1013.9 |
| 20260505074515 | 11 | 58 | 1.6 | 4.8 | 0.00 | 0.00 | 0.00 | 83 | 1013.9 |
| 20260505073032 | 11 | 110 | 1.6 | 6.4 | 0.00 | 0.00 | 0.00 | 84 | 1013.8 |
| 20260505071524 | 11 | 221 | 1.6 | 6.4 | 0.00 | 0.00 | 0.00 | 84 | 1013.9 |
| 20260505070010 | 11 | 80 | 1.6 | 6.4 | 0.00 | 0.00 | 0.00 | 85 | 1014.0 |
| 20260505064531 | 11 | 89 | 1.6 | 4.8 | 0.00 | 0.00 | 0.00 | 85 | 1014.0 |
| 20260505063019 | 10 | 286 | 0.0 | 6.4 | 0.00 | 0.00 | 0.00 | 86 | 1014.0 |
| 20260505061531 | 10 | 46 | 1.6 | 4.8 | 0.00 | 0.00 | 0.00 | 87 | 1014.0 |
| 20260505060028 | 10 | 34 | 0.0 | 1.6 | 0.00 | 0.00 | 0.00 | 87 | 1014.1 |
| 20260505054510 | 10 | 49 | 0.0 | 4.8 | 0.00 | 0.00 | 0.00 | 87 | 1014.1 |
| 20260505053013 | 10 | 47 | 1.6 | 6.4 | 0.00 | 0.00 | 0.00 | 87 | 1014.2 |